| time (UTC) | temp C | wind direction | speed KPH | gust KPH | rain 1hr cm | rain 24hr cm | rain mn cm | humidity % | barometer mb |
| 20260508100927 | 13 | 198 | 9.7 | 17.7 | 0.00 | 0.00 | 0.00 | 56 | 991.1 |
| 20260508100415 | 13 | 234 | 9.7 | 17.7 | 0.00 | 0.00 | 0.00 | 56 | 991.2 |
| 20260508095914 | 13 | 219 | 12.9 | 16.1 | 0.00 | 0.00 | 0.00 | 58 | 991.1 |
| 20260508095403 | 13 | 277 | 9.7 | 9.7 | 0.00 | 0.00 | 0.00 | 60 | 991.1 |
| 20260508094949 | 13 | 236 | 4.8 | 8.0 | 0.00 | 0.00 | 0.00 | 64 | 991.0 |
| 20260508094402 | 12 | 80 | 0.0 | 16.1 | 0.00 | 0.00 | 0.00 | 64 | 991.1 |
| 20260508093907 | 12 | 180 | 1.6 | 14.5 | 0.00 | 0.00 | 0.00 | 69 | 991.2 |
| 20260508093356 | 12 | 140 | 6.4 | 22.5 | 0.00 | 0.00 | 0.00 | 70 | 991.2 |
| 20260508092923 | 12 | 171 | 8.0 | 11.3 | 0.00 | 0.00 | 0.00 | 76 | 991.3 |
| 20260508092349 | 12 | 142 | 6.4 | 14.5 | 0.00 | 0.00 | 0.00 | 79 | 991.3 |
| 20260508091856 | 11 | 269 | 1.6 | 14.5 | 0.00 | 0.00 | 0.00 | 85 | 991.3 |
| 20260508090852 | 11 | 101 | 8.0 | 9.7 | 0.00 | 0.00 | 0.00 | 92 | 991.4 |
| 20260508090336 | 11 | 204 | 3.2 | 9.7 | 0.00 | 0.00 | 0.00 | 91 | 991.3 |
| 20260508085848 | 11 | 157 | 6.4 | 8.0 | 0.00 | 0.00 | 0.00 | 89 | 991.3 |
| 20260508085331 | 11 | 94 | 3.2 | 6.4 | 0.00 | 0.00 | 0.00 | 90 | 991.4 |
| 20260508084837 | 11 | 223 | 0.0 | 4.8 | 0.00 | 0.00 | 0.00 | 90 | 991.4 |
| 20260508084331 | 10 | 266 | 1.6 | 6.4 | 0.00 | 0.00 | 0.00 | 89 | 991.4 |
| 20260508083830 | 10 | 180 | 1.6 | 3.2 | 0.00 | 0.00 | 0.00 | 94 | 991.4 |
| 20260508083318 | 10 | 191 | 1.6 | 9.7 | 0.00 | 0.00 | 0.00 | 93 | 991.2 |
| 20260508082827 | 10 | 214 | 1.6 | 3.2 | 0.00 | 0.00 | 0.00 | 96 | 991.2 |
| 20260508082322 | 10 | 104 | 0.0 | 4.8 | 0.00 | 0.00 | 0.00 | 96 | 991.2 |
| 20260508081818 | 10 | 246 | 3.2 | 6.4 | 0.00 | 0.00 | 0.00 | 95 | 991.2 |
| 20260508081311 | 10 | 268 | 4.8 | 4.8 | 0.00 | 0.00 | 0.00 | 95 | 991.1 |
| 20260508080812 | 10 | 206 | 1.6 | 4.8 | 0.00 | 0.00 | 0.00 | 99 | 991.1 |
| 20260508080258 | 10 | 211 | 1.6 | 6.4 | 0.00 | 0.00 | 0.00 | 100 | 991.0 |
| 20260508075755 | 10 | 268 | 1.6 | 3.2 | 0.00 | 0.00 | 0.00 | 100 | 991.0 |
| 20260508075252 | 10 | 254 | 1.6 | 1.6 | 0.00 | 0.00 | 0.00 | 100 | 991.0 |
| 20260508074811 | 10 | 145 | 1.6 | 1.6 | 0.00 | 0.00 | 0.00 | 100 | 990.9 |
| 20260508074243 | 10 | 128 | 1.6 | 4.8 | 0.00 | 0.00 | 0.00 | 100 | 990.9 |
| 20260508073816 | 9 | 225 | 1.6 | 3.2 | 0.00 | 0.00 | 0.00 | 100 | 990.9 |
| 20260508073239 | 9 | 160 | 0.0 | 1.6 | 0.00 | 0.00 | 0.00 | 100 | 990.9 |
| 20260508072810 | 8 | 289 | 0.0 | 0.0 | 0.00 | 0.00 | 0.00 | 100 | 990.8 |
| 20260508072233 | 8 | 269 | 0.0 | 0.0 | 0.00 | 0.00 | 0.00 | 100 | 990.9 |
| 20260508071745 | 8 | 342 | 0.0 | 1.6 | 0.00 | 0.00 | 0.00 | 100 | 990.7 |
| 20260508071224 | 8 | 315 | 0.0 | 1.6 | 0.00 | 0.00 | 0.00 | 100 | 990.8 |
| 20260508070743 | 8 | 270 | 0.0 | 1.6 | 0.00 | 0.00 | 0.00 | 100 | 990.7 |
| 20260508070220 | 8 | 315 | 0.0 | 0.0 | 0.00 | 0.00 | 0.00 | 100 | 990.6 |
| 20260508065802 | 7 | 315 | 0.0 | 0.0 | 0.00 | 0.00 | 0.00 | 100 | 990.5 |
| 20260508065214 | 7 | 285 | 0.0 | 0.0 | 0.00 | 0.00 | 0.00 | 100 | 990.4 |
| 20260508064719 | 7 | 280 | 0.0 | 0.0 | 0.00 | 0.00 | 0.00 | 100 | 990.3 |
| 20260508064205 | 7 | 90 | 0.0 | 0.0 | 0.00 | 0.00 | 0.00 | 100 | 990.3 |
| 20260508063726 | 7 | 225 | 0.0 | 0.0 | 0.00 | 0.00 | 0.00 | 100 | 990.4 |
| 20260508063214 | 7 | 270 | 0.0 | 0.0 | 0.00 | 0.00 | 0.00 | 100 | 990.4 |
| 20260508062724 | 7 | 45 | 0.0 | 1.6 | 0.00 | 0.00 | 0.00 | 100 | 990.6 |
| 20260508062206 | 7 | 231 | 0.0 | 1.6 | 0.00 | 0.00 | 0.00 | 100 | 990.5 |
| 20260508061659 | 7 | 180 | 0.0 | 0.0 | 0.00 | 0.00 | 0.00 | 100 | 990.1 |
| 20260508061157 | 6 | 135 | 0.0 | 1.6 | 0.00 | 0.00 | 0.00 | 100 | 990.0 |
| 20260508060701 | 6 | 90 | 0.0 | 0.0 | 0.00 | 0.00 | 0.00 | 100 | 990.1 |
| 20260508060142 | 6 | 33 | 0.0 | 1.6 | 0.00 | 0.00 | 0.00 | 100 | 990.2 |
| 20260508055723 | 6 | 33 | 0.0 | 0.0 | 0.00 | 0.00 | 0.00 | 100 | 990.1 |
| 20260508055159 | 6 | 135 | 0.0 | 1.6 | 0.00 | 0.00 | 0.00 | 100 | 990.2 |
| 20260508054647 | 6 | 90 | 1.6 | 1.6 | 0.00 | 0.00 | 0.00 | 100 | 990.3 |
| 20260508054138 | 6 | 94 | 0.0 | 1.6 | 0.00 | 0.00 | 0.00 | 100 | 990.1 |
| 20260508053649 | 6 | 89 | 0.0 | 0.0 | 0.00 | 0.00 | 0.00 | 100 | 990.0 |
| 20260508053123 | 6 | 19 | 0.0 | 0.0 | 0.00 | 0.00 | 0.00 | 100 | 990.0 |
| 20260508052110 | 6 | 270 | 0.0 | 0.0 | 0.00 | 0.00 | 0.00 | 100 | 990.0 |
| 20260508051652 | 6 | 270 | 0.0 | 0.0 | 0.00 | 0.00 | 0.00 | 100 | 990.0 |
| 20260508051124 | 6 | 315 | 0.0 | 0.0 | 0.00 | 0.00 | 0.00 | 100 | 989.9 |
| 20260508050639 | 6 | 315 | 0.0 | 0.0 | 0.00 | 0.00 | 0.00 | 100 | 989.8 |
| 20260508050058 | 7 | 270 | 0.0 | 0.0 | 0.00 | 0.00 | 0.00 | 100 | 989.9 |
| 20260508045636 | 6 | 270 | 0.0 | 0.0 | 0.00 | 0.00 | 0.00 | 100 | 989.8 |
| 20260508045058 | 7 | 90 | 0.0 | 1.6 | 0.00 | 0.00 | 0.00 | 100 | 989.8 |
| 20260508044611 | 7 | 131 | 0.0 | 1.6 | 0.00 | 0.00 | 0.00 | 100 | 989.8 |
| 20260508043559 | 7 | 270 | 0.0 | 0.0 | 0.00 | 0.00 | 0.00 | 100 | 989.7 |
| 20260508043039 | 7 | 270 | 0.0 | 0.0 | 0.00 | 0.00 | 0.00 | 100 | 989.8 |
| 20260508042606 | 7 | 274 | 0.0 | 0.0 | 0.00 | 0.00 | 0.00 | 100 | 989.7 |
| 20260508042041 | 7 | 270 | 0.0 | 0.0 | 0.00 | 0.00 | 0.00 | 100 | 989.8 |
| 20260508041542 | 7 | 270 | 0.0 | 0.0 | 0.00 | 0.00 | 0.00 | 100 | 989.8 |
| 20260508041056 | 7 | 92 | 0.0 | 1.6 | 0.00 | 0.00 | 0.00 | 100 | 989.8 |
| 20260508040538 | 7 | 90 | 0.0 | 1.6 | 0.00 | 0.00 | 0.00 | 100 | 989.8 |
| 20260508040029 | 7 | 121 | 1.6 | 1.6 | 0.00 | 0.00 | 0.00 | 100 | 989.7 |
| 20260508035549 | 7 | 180 | 0.0 | 0.0 | 0.00 | 0.00 | 0.00 | 100 | 989.6 |
| 20260508035014 | 7 | 180 | 0.0 | 0.0 | 0.00 | 0.00 | 0.00 | 100 | 989.6 |
| 20260508034524 | 7 | 180 | 0.0 | 0.0 | 0.00 | 0.00 | 0.00 | 100 | 989.7 |
| 20260508034027 | 7 | 180 | 0.0 | 0.0 | 0.00 | 0.00 | 0.00 | 100 | 989.7 |
| 20260508033529 | 7 | 180 | 0.0 | 0.0 | 0.00 | 0.00 | 0.00 | 100 | 989.6 |
| 20260508033003 | 7 | 180 | 0.0 | 1.6 | 0.00 | 0.00 | 0.00 | 100 | 989.7 |
| 20260508031955 | 7 | 225 | 0.0 | 0.0 | 0.00 | 0.00 | 0.00 | 100 | 989.7 |
| 20260508031511 | 7 | 241 | 0.0 | 0.0 | 0.00 | 0.00 | 0.00 | 100 | 989.7 |
| 20260508031012 | 8 | 90 | 0.0 | 0.0 | 0.00 | 0.00 | 0.00 | 100 | 989.6 |
| 20260508030457 | 8 | 270 | 0.0 | 0.0 | 0.00 | 0.00 | 0.00 | 100 | 989.7 |
| 20260508025942 | 8 | 270 | 0.0 | 0.0 | 0.00 | 0.00 | 0.00 | 100 | 989.7 |
| 20260508025503 | 8 | 315 | 0.0 | 0.0 | 0.00 | 0.00 | 0.00 | 100 | 989.7 |
| 20260508024934 | 8 | 315 | 0.0 | 0.0 | 0.00 | 0.00 | 0.00 | 100 | 989.9 |
| 20260508024443 | 8 | 315 | 0.0 | 0.0 | 0.00 | 0.00 | 0.00 | 100 | 989.9 |
| 20260508023945 | 8 | 315 | 0.0 | 0.0 | 0.00 | 0.00 | 0.00 | 100 | 989.7 |
| 20260508023441 | 8 | 315 | 0.0 | 0.0 | 0.00 | 0.00 | 0.00 | 100 | 989.8 |
| 20260508022921 | 8 | 315 | 0.0 | 0.0 | 0.00 | 0.00 | 0.00 | 100 | 989.9 |
| 20260508022450 | 8 | 315 | 0.0 | 0.0 | 0.00 | 0.00 | 0.00 | 100 | 989.9 |
| 20260508021915 | 8 | 315 | 0.0 | 1.6 | 0.00 | 0.00 | 0.00 | 100 | 989.9 |
| 20260508021428 | 8 | 315 | 0.0 | 1.6 | 0.00 | 0.00 | 0.00 | 100 | 989.9 |
| 20260508020415 | 8 | 270 | 1.6 | 1.6 | 0.00 | 0.00 | 0.00 | 100 | 990.0 |
| 20260508015929 | 8 | 315 | 0.0 | 1.6 | 0.00 | 0.00 | 0.00 | 100 | 990.0 |
| 20260508015426 | 8 | 315 | 0.0 | 1.6 | 0.00 | 0.00 | 0.00 | 100 | 990.2 |
| 20260508014912 | 8 | 315 | 1.6 | 1.6 | 0.00 | 0.00 | 0.00 | 100 | 990.2 |
| 20260508014409 | 8 | 225 | 0.0 | 1.6 | 0.00 | 0.00 | 0.00 | 100 | 990.2 |
| 20260508013852 | 8 | 135 | 1.6 | 1.6 | 0.00 | 0.00 | 0.00 | 100 | 990.1 |
| 20260508013402 | 8 | 315 | 0.0 | 1.6 | 0.00 | 0.00 | 0.00 | 100 | 989.8 |
| 20260508012423 | 8 | 315 | 0.0 | 0.0 | 0.00 | 0.00 | 0.00 | 100 | 990.3 |
| 20260508011846 | 8 | 315 | 0.0 | 0.0 | 0.00 | 0.00 | 0.00 | 100 | 990.3 |
| 20260508011350 | 8 | 315 | 0.0 | 1.6 | 0.00 | 0.00 | 0.00 | 100 | 990.2 |
| 20260508010831 | 8 | 315 | 0.0 | 0.0 | 0.00 | 0.00 | 0.00 | 100 | 990.2 |
| 20260508010347 | 8 | 315 | 0.0 | 0.0 | 0.00 | 0.00 | 0.00 | 100 | 990.2 |
| 20260508005829 | 8 | 315 | 0.0 | 0.0 | 0.00 | 0.00 | 0.00 | 100 | 990.3 |
| 20260508005334 | 8 | 315 | 0.0 | 0.0 | 0.00 | 0.00 | 0.00 | 100 | 990.2 |
| 20260508004845 | 8 | 315 | 0.0 | 0.0 | 0.00 | 0.00 | 0.00 | 100 | 990.1 |
| 20260508004326 | 8 | 315 | 0.0 | 0.0 | 0.00 | 0.00 | 0.00 | 100 | 990.2 |
| 20260508003327 | 8 | 315 | 0.0 | 0.0 | 0.00 | 0.00 | 0.00 | 100 | 990.2 |
| 20260508002817 | 9 | 90 | 0.0 | 0.0 | 0.00 | 0.00 | 0.00 | 100 | 990.2 |
| 20260508002315 | 9 | 90 | 0.0 | 0.0 | 0.00 | 0.00 | 0.00 | 100 | 990.4 |
| 20260508001806 | 9 | 89 | 0.0 | 0.0 | 0.00 | 0.00 | 0.00 | 100 | 990.5 |
| 20260508001301 | 9 | 180 | 0.0 | 1.6 | 0.00 | 0.00 | 0.00 | 100 | 990.5 |
| 20260508000817 | 9 | 180 | 0.0 | 0.0 | 0.00 | 0.00 | 0.00 | 100 | 990.4 |
| 20260508000334 | 9 | 270 | 0.0 | 0.0 | 0.00 | 0.00 | 0.00 | 100 | 990.4 |
| 20260507235809 | 9 | 0 | 0.0 | 1.6 | 0.00 | 0.00 | 0.00 | 100 | 990.5 |
| 20260507235259 | 9 | 45 | 0.0 | 0.0 | 0.00 | 0.00 | 0.00 | 100 | 990.5 |
| 20260507234252 | 9 | 270 | 0.0 | 0.0 | 0.00 | 0.00 | 0.00 | 100 | 990.6 |
| 20260507233249 | 9 | 225 | 0.0 | 0.0 | 0.00 | 0.00 | 0.00 | 100 | 990.7 |
| 20260507232742 | 9 | 225 | 0.0 | 0.0 | 0.00 | 0.00 | 0.00 | 100 | 990.8 |
| 20260507232240 | 9 | 225 | 0.0 | 0.0 | 0.00 | 0.00 | 0.00 | 100 | 990.9 |
| 20260507231226 | 9 | 270 | 0.0 | 1.6 | 0.00 | 0.00 | 0.00 | 100 | 990.9 |
| 20260507230740 | 9 | 270 | 0.0 | 3.2 | 0.00 | 0.00 | 0.00 | 100 | 990.8 |
| 20260507230227 | 9 | 320 | 1.6 | 1.6 | 0.00 | 0.00 | 0.00 | 100 | 990.8 |
| 20260507225716 | 10 | 298 | 1.6 | 1.6 | 0.00 | 0.00 | 0.00 | 100 | 990.9 |
| 20260507225231 | 10 | 309 | 1.6 | 1.6 | 0.00 | 0.00 | 0.00 | 100 | 991.0 |
| 20260507222707 | 10 | 270 | 1.6 | 4.8 | 0.00 | 0.00 | 0.00 | 100 | 991.2 |
| 20260507222205 | 10 | 304 | 1.6 | 3.2 | 0.00 | 0.00 | 0.00 | 100 | 991.3 |
| 20260507221648 | 9 | 324 | 3.2 | 3.2 | 0.00 | 0.00 | 0.00 | 100 | 991.2 |
| 20260507221215 | 9 | 272 | 0.0 | 1.6 | 0.00 | 0.00 | 0.00 | 100 | 991.4 |
| 20260507220642 | 9 | 315 | 0.0 | 1.6 | 0.00 | 0.00 | 0.00 | 100 | 991.3 |
| 20260507220206 | 9 | 288 | 0.0 | 3.2 | 0.00 | 0.00 | 0.00 | 100 | 991.4 |
| 20260507215636 | 9 | 307 | 3.2 | 3.2 | 0.00 | 0.00 | 0.00 | 100 | 991.3 |
| 20260507215143 | 9 | 315 | 1.6 | 4.8 | 0.00 | 0.00 | 0.00 | 100 | 991.2 |
| 20260507214700 | 9 | 290 | 1.6 | 3.2 | 0.00 | 0.00 | 0.00 | 100 | 991.4 |
| 20260507214140 | 9 | 313 | 1.6 | 3.2 | 0.00 | 0.00 | 0.00 | 100 | 991.3 |
| 20260507213633 | 10 | 313 | 1.6 | 3.2 | 0.00 | 0.00 | 0.00 | 100 | 991.4 |
| 20260507213141 | 10 | 315 | 0.0 | 3.2 | 0.00 | 0.00 | 0.00 | 100 | 991.3 |
| 20260507212655 | 10 | 289 | 1.6 | 3.2 | 0.00 | 0.00 | 0.00 | 99 | 991.5 |
| 20260507211645 | 10 | 279 | 1.6 | 3.2 | 0.00 | 0.00 | 0.00 | 95 | 991.4 |
| 20260507211132 | 10 | 315 | 1.6 | 3.2 | 0.00 | 0.00 | 0.00 | 93 | 991.4 |
| 20260507210147 | 10 | 289 | 1.6 | 3.2 | 0.00 | 0.00 | 0.00 | 92 | 991.5 |
| 20260507205116 | 10 | 293 | 1.6 | 3.2 | 0.00 | 0.00 | 0.00 | 89 | 991.4 |
| 20260507204628 | 10 | 274 | 3.2 | 3.2 | 0.00 | 0.00 | 0.00 | 88 | 991.3 |
| 20260507204124 | 10 | 284 | 1.6 | 4.8 | 0.00 | 0.00 | 0.00 | 87 | 991.2 |
| 20260507203548 | 11 | 287 | 1.6 | 4.8 | 0.00 | 0.00 | 0.00 | 86 | 991.1 |
| 20260507203142 | 11 | 307 | 1.6 | 8.0 | 0.00 | 0.00 | 0.00 | 85 | 991.1 |
| 20260507202545 | 11 | 292 | 1.6 | 8.0 | 0.00 | 0.00 | 0.00 | 84 | 991.1 |
| 20260507202100 | 11 | 315 | 1.6 | 3.2 | 0.00 | 0.00 | 0.00 | 84 | 991.0 |
| 20260507201118 | 11 | 310 | 4.8 | 8.0 | 0.00 | 0.00 | 0.00 | 82 | 990.8 |
| 20260507200542 | 11 | 315 | 0.0 | 6.4 | 0.00 | 0.00 | 0.00 | 81 | 990.9 |
| 20260507200053 | 11 | 312 | 9.7 | 9.7 | 0.00 | 0.00 | 0.00 | 80 | 990.8 |
| 20260507195544 | 11 | 309 | 4.8 | 9.7 | 0.00 | 0.00 | 0.00 | 80 | 990.7 |
| 20260507195049 | 11 | 316 | 4.8 | 14.5 | 0.00 | 0.00 | 0.00 | 79 | 990.7 |
| 20260507194540 | 11 | 331 | 3.2 | 6.4 | 0.00 | 0.00 | 0.00 | 78 | 990.7 |
| 20260507194052 | 11 | 303 | 1.6 | 11.3 | 0.00 | 0.00 | 0.00 | 77 | 990.6 |
| 20260507193516 | 11 | 312 | 4.8 | 9.7 | 0.00 | 0.00 | 0.00 | 77 | 990.6 |
| 20260507192514 | 11 | 283 | 8.0 | 9.7 | 0.00 | 0.00 | 0.00 | 75 | 990.4 |
| 20260507192032 | 12 | 310 | 8.0 | 12.9 | 0.00 | 0.00 | 0.00 | 75 | 990.4 |
| 20260507191507 | 12 | 303 | 4.8 | 11.3 | 0.00 | 0.00 | 0.00 | 75 | 990.4 |
| 20260507191018 | 12 | 296 | 8.0 | 22.5 | 0.00 | 0.00 | 0.00 | 74 | 990.4 |
| 20260507190453 | 12 | 271 | 12.9 | 16.1 | 0.00 | 0.00 | 0.00 | 73 | 990.2 |
| 20260507185450 | 12 | 268 | 9.7 | 22.5 | 0.00 | 0.00 | 0.00 | 71 | 990.2 |
| 20260507185003 | 12 | 308 | 6.4 | 24.1 | 0.00 | 0.00 | 0.00 | 71 | 990.2 |
| 20260507184456 | 12 | 313 | 8.0 | 20.9 | 0.00 | 0.00 | 0.00 | 70 | 990.1 |
| 20260507183957 | 12 | 261 | 9.7 | 16.1 | 0.00 | 0.00 | 0.00 | 69 | 990.0 |
| 20260507183431 | 13 | 276 | 8.0 | 16.1 | 0.00 | 0.00 | 0.00 | 68 | 989.9 |
| 20260507182416 | 13 | 310 | 9.7 | 14.5 | 0.00 | 0.00 | 0.00 | 64 | 989.8 |
| 20260507181946 | 13 | 271 | 4.8 | 19.3 | 0.00 | 0.00 | 0.00 | 64 | 989.7 |
| 20260507181423 | 13 | 295 | 6.4 | 16.1 | 0.00 | 0.00 | 0.00 | 63 | 989.6 |
| 20260507180922 | 13 | 311 | 12.9 | 27.4 | 0.00 | 0.00 | 0.00 | 63 | 989.6 |
| 20260507180409 | 13 | 309 | 14.5 | 19.3 | 0.00 | 0.00 | 0.00 | 62 | 989.4 |
| 20260507175948 | 14 | 301 | 6.4 | 19.3 | 0.00 | 0.00 | 0.00 | 61 | 989.3 |
| 20260507175403 | 14 | 305 | 17.7 | 25.7 | 0.00 | 0.00 | 0.00 | 60 | 989.4 |
| 20260507174906 | 14 | 307 | 11.3 | 19.3 | 0.00 | 0.00 | 0.00 | 58 | 989.1 |
| 20260507174412 | 14 | 300 | 8.0 | 20.9 | 0.00 | 0.00 | 0.00 | 57 | 989.2 |
| 20260507173912 | 15 | 297 | 4.8 | 20.9 | 0.00 | 0.00 | 0.00 | 57 | 989.2 |
| 20260507173351 | 15 | 284 | 6.4 | 17.7 | 0.00 | 0.00 | 0.00 | 56 | 989.1 |
| 20260507172918 | 15 | 285 | 12.9 | 19.3 | 0.00 | 0.00 | 0.00 | 54 | 989.1 |
| 20260507172341 | 15 | 350 | 11.3 | 14.5 | 0.00 | 0.00 | 0.00 | 53 | 989.1 |
| 20260507171854 | 15 | 315 | 14.5 | 17.7 | 0.00 | 0.00 | 0.00 | 51 | 989.1 |
| 20260507171410 | 16 | 310 | 11.3 | 16.1 | 0.00 | 0.00 | 0.00 | 49 | 989.1 |
| 20260507170854 | 16 | 298 | 11.3 | 12.9 | 0.00 | 0.00 | 0.00 | 47 | 989.0 |
| 20260507170337 | 16 | 274 | 11.3 | 16.1 | 0.00 | 0.00 | 0.00 | 42 | 988.9 |
| 20260507165859 | 16 | 272 | 9.7 | 27.4 | 0.00 | 0.00 | 0.00 | 42 | 989.0 |
| 20260507165321 | 17 | 270 | 12.9 | 22.5 | 0.00 | 0.00 | 0.00 | 42 | 989.0 |
| 20260507164832 | 17 | 283 | 9.7 | 14.5 | 0.00 | 0.00 | 0.00 | 42 | 989.1 |
| 20260507164341 | 16 | 264 | 4.8 | 12.9 | 0.00 | 0.00 | 0.00 | 44 | 989.0 |
| 20260507163816 | 16 | 265 | 14.5 | 14.5 | 0.00 | 0.00 | 0.00 | 42 | 989.0 |
| 20260507163308 | 17 | 283 | 9.7 | 12.9 | 0.00 | 0.00 | 0.00 | 41 | 988.9 |
| 20260507162849 | 17 | 280 | 8.0 | 16.1 | 0.00 | 0.00 | 0.00 | 40 | 988.8 |
| 20260507162307 | 17 | 287 | 4.8 | 16.1 | 0.00 | 0.00 | 0.00 | 40 | 988.8 |
| 20260507161827 | 17 | 277 | 6.4 | 14.5 | 0.00 | 0.00 | 0.00 | 40 | 988.8 |
| 20260507161327 | 17 | 286 | 8.0 | 16.1 | 0.00 | 0.00 | 0.00 | 40 | 988.9 |
| 20260507160809 | 16 | 314 | 8.0 | 12.9 | 0.00 | 0.00 | 0.00 | 40 | 988.8 |
| 20260507160253 | 17 | 300 | 9.7 | 17.7 | 0.00 | 0.00 | 0.00 | 39 | 989.0 |
| 20260507155835 | 17 | 270 | 12.9 | 14.5 | 0.00 | 0.00 | 0.00 | 39 | 989.0 |
| 20260507155247 | 17 | 307 | 4.8 | 14.5 | 0.00 | 0.00 | 0.00 | 37 | 989.0 |
| 20260507154744 | 18 | 256 | 6.4 | 11.3 | 0.00 | 0.00 | 0.00 | 36 | 989.1 |
| 20260507153746 | 17 | 319 | 6.4 | 6.4 | 0.00 | 0.00 | 0.00 | 39 | 989.1 |
| 20260507153234 | 16 | 265 | 1.6 | 14.5 | 0.00 | 0.00 | 0.00 | 40 | 989.2 |
| 20260507152228 | 17 | 273 | 11.3 | 14.5 | 0.00 | 0.00 | 0.00 | 36 | 989.2 |
| 20260507151735 | 17 | 258 | 3.2 | 8.0 | 0.00 | 0.00 | 0.00 | 40 | 989.3 |
| 20260507151236 | 16 | 307 | 8.0 | 11.3 | 0.00 | 0.00 | 0.00 | 40 | 989.4 |
| 20260507150716 | 17 | 280 | 6.4 | 16.1 | 0.00 | 0.00 | 0.00 | 39 | 989.2 |
| 20260507150220 | 17 | 291 | 9.7 | 17.7 | 0.00 | 0.00 | 0.00 | 39 | 989.3 |
| 20260507145729 | 16 | 298 | 4.8 | 11.3 | 0.00 | 0.00 | 0.00 | 39 | 989.4 |
| 20260507145208 | 17 | 234 | 1.6 | 8.0 | 0.00 | 0.00 | 0.00 | 38 | 989.5 |
| 20260507144714 | 17 | 189 | 8.0 | 14.5 | 0.00 | 0.00 | 0.00 | 37 | 989.5 |
| 20260507144215 | 17 | 323 | 8.0 | 12.9 | 0.00 | 0.00 | 0.00 | 39 | 989.5 |
| 20260507143711 | 17 | 275 | 12.9 | 16.1 | 0.00 | 0.00 | 0.00 | 40 | 989.6 |
| 20260507143156 | 16 | 262 | 8.0 | 19.3 | 0.00 | 0.00 | 0.00 | 41 | 989.7 |
| 20260507142712 | 16 | 292 | 11.3 | 14.5 | 0.00 | 0.00 | 0.00 | 41 | 989.9 |
| 20260507141703 | 16 | 262 | 4.8 | 11.3 | 0.00 | 0.00 | 0.00 | 40 | 990.0 |
| 20260507141157 | 16 | 262 | 3.2 | 12.9 | 0.00 | 0.00 | 0.00 | 40 | 990.0 |
| 20260507140713 | 16 | 233 | 4.8 | 17.7 | 0.00 | 0.00 | 0.00 | 41 | 990.0 |
| 20260507140137 | 16 | 303 | 9.7 | 17.7 | 0.00 | 0.00 | 0.00 | 42 | 990.1 |
| 20260507135652 | 16 | 320 | 16.1 | 16.1 | 0.00 | 0.00 | 0.00 | 41 | 990.0 |
| 20260507135130 | 17 | 280 | 8.0 | 9.7 | 0.00 | 0.00 | 0.00 | 39 | 990.0 |
| 20260507134640 | 17 | 260 | 3.2 | 14.5 | 0.00 | 0.00 | 0.00 | 38 | 990.0 |
| 20260507134124 | 17 | 270 | 6.4 | 12.9 | 0.00 | 0.00 | 0.00 | 38 | 989.9 |
| 20260507133636 | 16 | 69 | 1.6 | 11.3 | 0.00 | 0.00 | 0.00 | 39 | 990.0 |
| 20260507133117 | 17 | 261 | 11.3 | 12.9 | 0.00 | 0.00 | 0.00 | 39 | 990.1 |
| 20260507132634 | 17 | 305 | 4.8 | 16.1 | 0.00 | 0.00 | 0.00 | 40 | 990.0 |
| 20260507132111 | 16 | 290 | 9.7 | 11.3 | 0.00 | 0.00 | 0.00 | 41 | 990.0 |
| 20260507131617 | 16 | 290 | 4.8 | 14.5 | 0.00 | 0.00 | 0.00 | 41 | 990.2 |
| 20260507131129 | 17 | 317 | 6.4 | 14.5 | 0.00 | 0.00 | 0.00 | 39 | 990.2 |
| 20260507130604 | 17 | 279 | 4.8 | 9.7 | 0.00 | 0.00 | 0.00 | 37 | 990.3 |
| 20260507130105 | 17 | 289 | 3.2 | 6.4 | 0.00 | 0.00 | 0.00 | 39 | 990.3 |
| 20260507125605 | 16 | 192 | 4.8 | 9.7 | 0.00 | 0.00 | 0.00 | 39 | 990.4 |
| 20260507125052 | 16 | 264 | 4.8 | 12.9 | 0.00 | 0.00 | 0.00 | 42 | 990.5 |
| 20260507124558 | 16 | 204 | 3.2 | 17.7 | 0.00 | 0.00 | 0.00 | 42 | 990.5 |
| 20260507124051 | 16 | 266 | 6.4 | 12.9 | 0.00 | 0.00 | 0.00 | 42 | 990.5 |
| 20260507123553 | 16 | 279 | 9.7 | 12.9 | 0.00 | 0.00 | 0.00 | 43 | 990.6 |
| 20260507123039 | 16 | 252 | 9.7 | 19.3 | 0.00 | 0.00 | 0.00 | 42 | 990.7 |
| 20260507122033 | 16 | 281 | 6.4 | 12.9 | 0.00 | 0.00 | 0.00 | 44 | 990.8 |
| 20260507121533 | 16 | 323 | 9.7 | 14.5 | 0.00 | 0.00 | 0.00 | 45 | 990.9 |
| 20260507121027 | 16 | 295 | 4.8 | 14.5 | 0.00 | 0.00 | 0.00 | 45 | 990.9 |
| 20260507120533 | 16 | 283 | 6.4 | 8.0 | 0.00 | 0.00 | 0.00 | 45 | 990.9 |
| 20260507120021 | 16 | 258 | 4.8 | 11.3 | 0.00 | 0.00 | 0.00 | 46 | 991.0 |
| 20260507115556 | 15 | 291 | 4.8 | 16.1 | 0.00 | 0.00 | 0.00 | 47 | 991.1 |
| 20260507115008 | 15 | 309 | 4.8 | 16.1 | 0.00 | 0.00 | 0.00 | 49 | 991.0 |
| 20260507114517 | 15 | 280 | 8.0 | 11.3 | 0.00 | 0.00 | 0.00 | 49 | 991.2 |
| 20260507114008 | 16 | 307 | 3.2 | 8.0 | 0.00 | 0.00 | 0.00 | 46 | 991.1 |
| 20260507113530 | 16 | 275 | 1.6 | 6.4 | 0.00 | 0.00 | 0.00 | 46 | 991.2 |
| 20260507113000 | 15 | 278 | 6.4 | 11.3 | 0.00 | 0.00 | 0.00 | 47 | 991.3 |
| 20260507112508 | 15 | 239 | 6.4 | 20.9 | 0.00 | 0.00 | 0.00 | 50 | 991.1 |
| 20260507111955 | 15 | 271 | 19.3 | 19.3 | 0.00 | 0.00 | 0.00 | 52 | 991.1 |
| 20260507111503 | 15 | 290 | 11.3 | 22.5 | 0.00 | 0.00 | 0.00 | 49 | 991.1 |
| 20260507110950 | 16 | 296 | 14.5 | 14.5 | 0.00 | 0.00 | 0.00 | 47 | 991.1 |
| 20260507105951 | 14 | 188 | 4.8 | 11.3 | 0.00 | 0.00 | 0.00 | 56 | 991.1 |
| 20260507105449 | 14 | 282 | 11.3 | 20.9 | 0.00 | 0.00 | 0.00 | 56 | 991.1 |
| 20260507105002 | 15 | 288 | 9.7 | 24.1 | 0.00 | 0.00 | 0.00 | 56 | 991.2 |
| 20260507104432 | 15 | 278 | 9.7 | 27.4 | 0.00 | 0.00 | 0.00 | 53 | 991.2 |
| 20260507103924 | 15 | 266 | 12.9 | 17.7 | 0.00 | 0.00 | 0.00 | 51 | 991.1 |
| 20260507103436 | 15 | 172 | 6.4 | 19.3 | 0.00 | 0.00 | 0.00 | 52 | 991.1 |
| 20260507102929 | 14 | 322 | 9.7 | 11.3 | 0.00 | 0.00 | 0.00 | 56 | 991.1 |
| 20260507102422 | 14 | 275 | 8.0 | 22.5 | 0.00 | 0.00 | 0.00 | 55 | 991.1 |
| 20260507101915 | 13 | 279 | 4.8 | 19.3 | 0.00 | 0.00 | 0.00 | 56 | 991.1 |
| 20260507101417 | 13 | 322 | 11.3 | 25.7 | 0.00 | 0.00 | 0.00 | 59 | 991.1 |